Погода в Пудоже

Хотите узнать прогноз погоды в Пудоже? Тогда Вам сюда: Погода в Пудоже

Поиск расширенной информации на нашем сайте:

Полезная информация:

Новости сайта



02.01.2020
Опубликован Долгосрочный прогноз погоды по городам России и ближнего зарубежья на январь 2020 года.
Карты: Прогноз на январь и февраль 2020 года, Сравнение прогнозируемой аномалии приземной температуры воздуха на январь 2020 года по разным моделям.




Погода в Пудоже - сегодня

Время (UTC), дата Ветер
(°,м/с) 
Видим.   Явления Облачность Т
(°С)
Тd
(°С)
f(%) Тe
(°С)
Pmin
(гПа)
dP
(гПа)
Po
(мм)
O2
(г/м3)
Тmin Tmax R s Состояние
почвы
21 29.11.20 090 (В) 10 км    10/10 210 м 
[Frnb|Ns]
-4.1 -5.2 92 -5  1033.8  -1.2  771  316           
00 30.11.20 100 (В) 10 км    10/10 1230 м 
[Sc]
-3.5 -4.6 92 -3  1032.5  -1.2  770  315           
03 30.11.20 090 (В) 10 км    10/10 360 м кучево-дожд. 
[Cb cap]
-2.7 -3.8 92 -2  1030.9  -1.6  769  313  -4.5         
06 30.11.20 120 (ЮВ) 20000 м    10/10 330 м 
[Ns]
-1.3 -2.6 91 -1  1029.8  -1.1  768  311  -4.5      14  равномерный
сухой снег
100% 
09 30.11.20 110 (В) 20000 м    10/10 270 м 
[Ns]
-0.2 -1.5 91 1028.8  -1  767  310           
12 30.11.20 110 (В) 10 км  слаб. снег  10/10 300 м 
[Ns]
+0.4 -0.9 91 +1  1026.9  -1.8  766  308           
15 30.11.20 100 (В) 4000 м  слаб. снег{дождь}  10/10 400 м 
[Ns]
+0.2 -0.8 93 +1  1025.2  -1.7  765  308      0.4     
18 30.11.20 120 (ЮВ) 10 км  {снег, дождь}  10/10 270 м 
[Ns]
+0.6 -0.7 91 1023.4  -1.8  763  307    +0.7  0.4     
21 30.11.20 140 (ЮВ) 4000 м  слаб. снег  10/10 270 м 
[Ns]
+0.3 -0.6 94 1022.6  -0.8  763  307           
00 01.12.20 170 (Ю) 4000 м  слаб. снег{дождь}  10/10 180 м 
[Frnb|Ns]
+0.5 -0.6 92 1022.6  763  307           
03 01.12.20 170 (Ю) 10 км  в посл. час снег  9/9 1170 м 
[Sc]
-0.1 -1.1 93 +1  1022.6  763  308  -0.2       
06 01.12.20 170 (Ю) 10 км  {снег}  9/9 1300 м 
[Sc]
-0.4 -1.8 90 1022.9  0.3  763  308  -0.5    15  равномерный
мокрый или
старый снег
100% 
09 01.12.20 170 (Ю) 10 км  слаб. снег  10/10 450 м 
[Ns]
-1.1 -2.2 92 -2  1023.1  0.2  763  309           
12 01.12.20 180 (Ю) 5000 м  слаб. ливневой снег  10/10 420 м кучево-дожд. 
[Cb cap]
-0.5 -1.6 92 -1  1023.3  0.2  763  308           
15 01.12.20 200 (Ю) 10 км  {ливн. осадки, снег}  10/10 1350 м 
[Sc]
+0.3 -1.5 88 1024.3  764  308         
21 01.12.20 220 (ЮЗ) 2000 м  снег  10/10 150 м 
[Frnb|Ns]
+0.1 -0.5 96 -1  1025.2  0.5  765  308           
00 02.12.20 220 (ЮЗ) 2000 м  слаб. снег  10/10 180 м 
[Frnb|Ns]
+0 -0.6 96 -1  1026.4  1.2  766  309           
03 02.12.20 220 (ЮЗ) 4000 м  слаб. снег [диам. отлож. мокр. снега 0 мм]  10/10 180 м 
[Frnb|Ns]
+0.4 -0.2 96 1027.6  1.2  767  308  +0       
06 02.12.20 220 (ЮЗ) 10 км  {снег, дождь}  10/10 180 м 
[Frnb|Ns]
+0.7 +0.1 96 +1  1028.7  1.1  767  308  +0    19  равномерный
мокрый или
старый снег
100% 
09 02.12.20 210 (ЮЗ) 20000 м    10/10 180 м 
[Frnb|Ns]
+1.2 +0.5 95 +2  1030.1  1.4  768  308           
12 02.12.20 210 (ЮЗ) 10 км  слаб. дождь  10/10 180 м 
[Frnb|Ns]
+1.3 +0.6 95 +2  1030.6  0.5  769  308           
15 02.12.20 200 (Ю) 10 км    10/10 120 м 
[St]
+1.1 +0.4 95 +2  1031.3  0.7  769  309         
18 02.12.20 190 (Ю) 4000 м  дымка  10/10 60 м 
[St]
+0.8 +0.2 96 +1  1031.6  0.3  770  309    +1.3  0.4     
21 02.12.20 140 (ЮВ) 4000 м  слаб. снег  10/10 60 м 
[Frnb|Ns]
+0.3 -0.3 96 +1  1032.1  0.4  770  310           
00 03.12.20 170 (Ю) 10 км  {снег, морось}  10/10 100 м 
[St]
+0.2 -0.4 96 +1  1032.1  770  310           
Время (UTC), дата Ветер
(°,м/с) 
Видим.   Явления Облачность Т
(°С)
Тd
(°С)
f(%) Тe
(°С)
Pmin
(гПа)
dP
(гПа)
Po
(мм)
O2
(г/м3)
Тmin Tmax R s Состояние
почвы

Для получения пояснительной информации подведите курсор к названию столбца.

ПОГОДА в Пудоже - архив

Всё, что Вы хотите узнать о погоде в Пудоже - удобно и подробно!

Выберите нужную дату (начиная с 1 января 2019* года) и нажмите кнопку "Найти".
Будут отображены архивные сводки погоды по пункту Пудож, начиная с указанной даты.


Отображать данные в формате CSV (для использования в таблицах Excel)


Внимание! Наш архив погоды предназначен исключительно для личного некоммерческого использования в познавательных целях. Если Вам необходимы официальные справки о состоянии погоды (для производственных, юридических, коммерческих и т.п. целей), обращайтесь в органы Росгидромета.

*Примечание: данная дата относится к архиву по метеостанциям СССР (Россия, СНГ, Балтия).
Архив по метеостанциям Зарубежной Европы и Азии (кроме Китая) хранится 10 дней, по другим регионам земного шара (Китай, Африка, Америка, Австралия, Океания) - 1 день.

Пудож - район местоположения метеостанции


Название, широта, долгота, высота метеостанции:
Пудож 61.8°ш. 36.5°д. 44 м над ур. моря [Российская Федерация]

Дополнительная информация

В oтличие oт бoльшинства пoгoдных сайтoв мы публикуем пoдрoбную метеoинфoрмацию в детальнoм прoфессиoнальнoм фoрмате.

Характеристики температуры и влажнoсти вoздуха измеряются на высoте 2 м в тени вдали oт зданий и деревьев.
Скoрoсть ветра измеряется на высoте 10 м (на урoвне рoста челoвека скoрoсть ветра ниже в 1.5-2 раза). Если метеoстанция нахoдится в гoрoде или в лесу, тo скoрoсть ветра занижена на 2-4 м/с пo сравнению с oткрытым местoм. Скoрoсть ветра над акватoриями крупных рек и oзёр, а также на вершинах хoлмoв на 2-5 м/с выше, чем в oбычных услoвиях.
Атмoсфернoе давление в разных тoчках местнoсти мoжет значительнo oтличаться oт давления на метеoстанции, в зависимoсти oт услoвий рельефа (при пoдъёме на 10 м давление пoнижается примернo на 1 мм рт.ст.).